Stations météo

réclame
Mon MeteoGroup
Chambery/Aix-Les-Bains, France (7491): Température de l'air & dewpoint: 27.03.2020 02:00:00 - 02.04.2020 02:00:00 (CEST)Chambery/Aix-Les-Bains, France (7491): Température de l'air 5cm: 27.03.2020 02:00:00 - 02.04.2020 02:00:00 (CEST)Chambery/Aix-Les-Bains, France (7491): Température de l'air -20cm & Température de l'air -100cm: 27.03.2020 02:00:00 - 02.04.2020 02:00:00 (CEST)Chambery/Aix-Les-Bains, France (7491): Vitesse du vent & gusts: 27.03.2020 02:00:00 - 02.04.2020 02:00:00 (CEST)Chambery/Aix-Les-Bains, France (7491): Direction du vent: 27.03.2020 02:00:00 - 02.04.2020 02:00:00 (CEST)Chambery/Aix-Les-Bains, France (7491): reduced air pressure: 27.03.2020 02:00:00 - 02.04.2020 02:00:00 (CEST)Chambery/Aix-Les-Bains, France (7491): visibility: 27.03.2020 02:00:00 - 02.04.2020 02:00:00 (CEST)Chambery/Aix-Les-Bains, France (7491): Ensoleillement: 27.03.2020 02:00:00 - 02.04.2020 02:00:00 (CEST)Chambery/Aix-Les-Bains, France (7491): Quantités de précipitations: 27.03.2020 02:00:00 - 02.04.2020 02:00:00 (CEST)
Date & Time tt [°C] td [°C] tt 5cm [°C] tt -20cm [°C] tt -100cm [°C] ff [km/h] ff [knt] fx [km/h] fx [knt] dd ppp [hPa] vv [km] sd [min] rr [mm]
02.04.2020 02:00:00 - - - - - - - - - - - - - -
02.04.2020 01:00:00 4,2 1,1 -2,4 8,8 9,0 6 3 10 5 SSW 1016,0 20 0 0,0
02.04.2020 00:00:00 4,7 1,2 -2,3 8,9 9,0 3 2 10 5 WNW 1016,0 26 0 0,0
01.04.2020 23:00:00 4,8 0,9 -2,1 8,9 9,0 3 2 6 3 SSE 1015,6 25 0 0,0
01.04.2020 22:00:00 6,0 1,3 -1,5 8,9 9,0 0 0 7 4 N 1015,3 30 0 0,0
01.04.2020 21:00:00 7,8 2,3 -0,7 8,9 9,0 3 2 5 3 SSE 1014,9 34 0 0,0
01.04.2020 20:00:00 9,8 2,4 3,0 8,8 9,0 2 1 7 4 W 1014,4 17 0 0,0
01.04.2020 19:00:00 13,0 1,6 8,9 8,7 9,0 4 2 12 6 WNW 1014,4 8 29 0,0
01.04.2020 18:00:00 14,6 2,1 17,2 8,5 9,0 7 4 18 10 N 1014,3 37 51 0,0
01.04.2020 17:00:00 14,4 2,0 18,0 8,4 9,0 9 5 16 9 N 1014,8 20 56 0,0
01.04.2020 16:00:00 14,1 2,3 23,5 8,3 9,0 11 6 17 9 N 1015,4 25 60 0,0
01.04.2020 15:00:00 13,1 2,0 22,5 8,1 9,0 10 6 17 9 NNW 1016,4 20 60 0,0
01.04.2020 14:00:00 11,6 0,7 21,8 8,0 9,0 10 6 19 10 N 1017,4 20 60 0,0
01.04.2020 13:00:00 10,8 -1,6 19,8 8,0 9,0 5 3 11 6 N 1018,5 29 60 0,0
01.04.2020 12:00:00 9,0 -2,6 15,8 8,1 9,0 7 4 14 8 N 1020,0 20 60 0,0
01.04.2020 11:00:00 7,2 -3,7 8,8 8,1 9,0 6 4 13 7 N 1021,0 17 44 0,0
01.04.2020 10:00:00 5,5 -3,6 8,7 8,2 9,0 6 4 16 9 N 1021,5 33 51 0,0
01.04.2020 09:00:00 2,9 -2,6 -3,6 8,2 9,0 5 3 9 5 ENE 1021,9 26 41 0,0
01.04.2020 08:00:00 -0,5 -5,1 -4,8 8,3 9,0 2 1 9 5 SSE 1022,3 20 0 0,0
01.04.2020 07:00:00 1,6 -4,5 -4,1 8,4 9,0 7 4 16 9 NNW 1021,9 25 0 0,0
01.04.2020 06:00:00 1,2 -5,1 -4,0 8,5 9,0 6 3 19 10 NE 1021,7 28 0 0,0
01.04.2020 05:00:00 2,1 -4,9 -3,6 8,5 9,0 3 2 16 9 W 1021,6 32 0 0,0
01.04.2020 04:00:00 3,7 -4,8 0,8 8,6 9,0 10 5 26 14 N 1021,5 36 0 0,0
01.04.2020 03:00:00 4,6 -4,9 1,4 8,7 9,0 15 8 24 13 N 1021,5 45 0 0,0
01.04.2020 02:00:00 4,9 -4,9 2,8 8,7 9,0 15 8 25 13 N 1021,2 44 0 0,0
01.04.2020 01:00:00 5,7 -5,0 3,2 8,7 9,0 16 9 27 15 NNE 1021,0 45 0 0,0
01.04.2020 00:00:00 6,5 -4,9 4,3 8,8 9,0 19 10 34 18 N 1020,8 47 0 0,0
31.03.2020 23:00:00 7,5 -5,3 5,7 8,8 9,0 26 14 39 21 N 1020,5 48 0 0,0
31.03.2020 22:00:00 8,2 -5,0 6,0 8,8 9,0 16 9 32 17 NNW 1020,3 57 0 0,0
31.03.2020 21:00:00 8,4 -3,8 6,4 8,8 9,0 20 11 36 19 N 1020,0 59 0 0,0
31.03.2020 20:00:00 9,6 -3,7 7,1 8,7 9,0 23 13 35 19 N 1019,5 55 0 0,0
31.03.2020 19:00:00 10,0 -2,0 8,3 8,6 9,0 16 8 27 14 N 1019,4 36 37 0,0
31.03.2020 18:00:00 12,1 -1,8 16,2 8,5 9,0 16 8 29 16 NNW 1019,1 23 60 0,0
31.03.2020 17:00:00 12,0 -0,5 18,8 8,4 9,0 17 9 31 17 NNW 1019,5 17 60 0,0
31.03.2020 16:00:00 11,3 -0,2 18,9 8,4 9,0 20 11 35 19 NNW 1020,2 18 60 0,0
31.03.2020 15:00:00 10,7 -0,2 18,7 8,3 9,0 20 11 28 15 N 1020,8 20 60 0,0
31.03.2020 14:00:00 9,6 -0,3 11,5 8,2 9,0 19 11 34 19 N 1021,4 18 25 0,0
31.03.2020 13:00:00 7,4 -1,3 10,6 8,3 9,0 21 11 34 18 NNW 1022,0 20 0 0,0
31.03.2020 12:00:00 6,6 -2,1 10,8 8,2 9,0 23 13 38 21 N 1022,1 20 9 0,0
31.03.2020 11:00:00 5,8 -2,3 6,0 8,2 9,0 18 10 38 21 N 1021,8 22 0 0,0
31.03.2020 10:00:00 4,7 -3,1 4,8 8,3 9,0 22 12 39 21 NNW 1022,1 16 0 0,0
31.03.2020 09:00:00 4,5 -3,1 4,0 8,4 9,0 22 12 41 22 N 1021,5 24 0 0,0
31.03.2020 08:00:00 4,1 -3,9 3,9 8,4 9,0 24 13 40 22 N 1021,0 29 0 0,0
31.03.2020 07:00:00 4,4 -3,4 4,1 8,4 9,0 26 14 40 21 N 1020,4 30 0 0,0
31.03.2020 06:00:00 4,5 -2,8 4,2 8,5 9,0 24 13 44 24 N 1020,3 28 0 0,0
31.03.2020 05:00:00 4,7 -2,4 4,4 8,5 9,0 27 15 42 23 N 1020,0 28 0 0,0
31.03.2020 04:00:00 4,8 -2,1 4,5 8,5 9,0 27 15 40 22 N 1020,0 26 0 0,0
31.03.2020 03:00:00 5,0 -1,9 4,7 8,6 9,0 25 14 40 21 N 1020,1 26 0 0,0
31.03.2020 02:00:00 5,1 -1,8 4,7 8,6 9,0 23 12 41 22 N 1020,4 26 0 0,0
31.03.2020 01:00:00 5,3 -1,6 4,9 8,6 8,9 22 12 39 21 N 1020,2 27 0 0,0
31.03.2020 00:00:00 5,3 -1,6 4,9 8,7 9,0 22 12 38 21 N 1020,4 29 0 0,0
30.03.2020 23:00:00 5,5 -1,2 5,1 8,7 8,9 24 13 40 22 N 1020,4 31 0 0,0
30.03.2020 22:00:00 5,6 -1,3 5,2 8,7 9,0 27 15 43 23 N 1020,5 34 0 0,0
30.03.2020 21:00:00 5,8 -1,1 5,4 8,7 8,9 26 14 40 22 N 1020,1 38 0 0,0
30.03.2020 20:00:00 6,0 -1,0 5,7 8,7 9,0 26 14 41 22 N 1019,4 39 0 0,0
30.03.2020 19:00:00 6,5 -0,3 6,6 8,7 8,9 27 14 38 21 N 1019,1 25 0 0,0
30.03.2020 18:00:00 7,0 0,0 7,7 8,7 8,9 23 12 37 20 N 1019,0 17 0 0,0
30.03.2020 17:00:00 7,2 0,2 9,0 8,7 9,0 23 12 38 21 NNW 1018,9 20 0 0,0
30.03.2020 16:00:00 7,4 0,1 9,5 8,7 8,9 26 14 42 23 N 1019,2 22 0 0,0
30.03.2020 15:00:00 7,2 0,4 8,8 8,6 8,9 25 13 44 24 N 1019,5 23 0 0,0
30.03.2020 14:00:00 6,8 0,0 8,7 8,6 8,9 29 16 42 23 N 1019,4 25 0 0,0
30.03.2020 13:00:00 7,2 0,4 7,6 8,6 8,9 26 14 38 21 N 1019,2 25 3 0,0
30.03.2020 12:00:00 6,2 0,1 7,0 8,7 8,9 26 14 41 22 NNW 1019,2 26 0 0,0
30.03.2020 11:00:00 6,1 0,4 6,8 8,7 8,9 24 13 42 23 N 1018,9 15 0 0,0
30.03.2020 10:00:00 6,1 0,4 6,0 8,7 8,9 28 15 42 23 N 1018,2 18 0 0,0
30.03.2020 09:00:00 5,9 0,2 5,4 8,8 8,9 28 15 41 22 N 1017,9 29 0 0,0
30.03.2020 08:00:00 5,8 0,3 5,2 8,8 8,9 24 13 40 21 N 1017,8 37 0 0,0
30.03.2020 07:00:00 5,8 0,5 5,1 8,9 8,9 23 13 37 20 N 1017,5 43 0 0,0
30.03.2020 06:00:00 5,5 0,5 5,0 8,9 8,9 24 13 39 21 N 1017,4 49 0 0,0
30.03.2020 05:00:00 5,4 0,6 4,9 8,9 8,9 26 14 36 20 N 1017,6 48 0 0,0
30.03.2020 04:00:00 5,5 0,8 4,9 9,0 8,9 24 13 38 20 N 1017,9 58 0 0,0
30.03.2020 03:00:00 5,5 1,0 4,6 9,0 8,9 23 12 41 22 N 1018,1 55 0 0,0
30.03.2020 02:00:00 5,6 1,1 4,4 9,1 8,9 24 13 43 23 N 1018,8 49 0 0,0
30.03.2020 01:00:00 5,7 1,6 4,4 9,1 8,9 26 14 42 23 N 1018,7 41 0 0,0
30.03.2020 00:00:00 5,4 2,7 4,4 9,1 8,9 24 13 37 20 N 1019,2 20 0 0,0
29.03.2020 23:00:00 5,3 2,5 4,5 9,1 8,9 21 12 33 18 N 1019,2 12 0 0,0
29.03.2020 22:00:00 5,5 2,5 4,6 9,2 8,9 20 11 30 16 N 1019,3 15 0 0,0
29.03.2020 21:00:00 5,3 2,1 4,5 9,2 8,9 5 3 14 7 SE 1019,3 18 0 0,0
29.03.2020 20:00:00 5,5 2,0 4,5 9,1 8,9 8 4 21 11 ESE 1018,8 14 0 0,0
29.03.2020 19:00:00 6,2 2,3 5,0 9,1 8,9 7 4 24 13 ESE 1018,3 10 0 0,2
29.03.2020 18:00:00 7,6 3,1 6,2 9,1 8,9 16 9 24 13 E 1017,4 11 0 0,2
29.03.2020 17:00:00 9,2 4,8 8,3 9,1 8,9 9 5 20 11 ESE 1016,7 10 0 0,6
29.03.2020 16:00:00 10,5 4,4 8,6 9,0 8,9 11 6 29 15 ESE 1016,5 7 0 0,4
29.03.2020 15:00:00 12,0 4,0 13,8 8,9 8,9 14 8 36 19 ESE 1015,8 10 0 0,0
29.03.2020 14:00:00 12,0 3,7 14,1 8,9 8,9 26 14 40 21 NNE 1015,8 12 0 0,0
29.03.2020 13:00:00 12,9 4,8 14,3 8,8 8,9 23 13 36 19 N 1015,6 12 0 0,0
29.03.2020 12:00:00 12,5 6,1 15,7 8,8 8,9 22 12 31 17 N 1015,6 10 25 0,0
29.03.2020 11:00:00 10,5 5,9 13,8 8,8 8,9 9 5 15 8 N 1016,0 9 17 0,0
29.03.2020 10:00:00 9,8 6,5 9,8 8,8 8,9 5 3 11 6 N 1016,2 11 24 0,0
29.03.2020 09:00:00 7,9 5,9 5,5 8,9 8,9 2 1 6 4 W 1016,2 9 0 0,0
29.03.2020 08:00:00 6,3 4,6 3,4 8,9 8,9 2 1 4 2 W 1016,3 7 0 0,0
29.03.2020 07:00:00 6,1 4,1 1,9 9,0 8,9 3 2 5 3 S 1016,2 6 0 0,0
29.03.2020 06:00:00 6,4 4,4 2,9 9,0 8,9 0 0 4 2 N 1016,3 8 0 0,0
29.03.2020 05:00:00 6,0 4,0 -0,6 9,1 8,9 0 0 4 2 N 1016,4 9 0 0,0
29.03.2020 04:00:00 6,3 3,8 -0,5 9,1 8,9 2 1 6 3 SW 1016,5 8 0 0,0
29.03.2020 03:00:00 8,0 4,6 1,6 9,1 8,9 2 1 4 2 WNW 1016,6 11 0 0,0
29.03.2020 02:00:00 8,6 5,0 5,4 9,2 8,9 2 1 5 3 SE 1016,5 11 0 0,0
29.03.2020 01:00:00 8,3 4,5 5,7 9,2 8,9 4 2 5 3 S 1016,5 11 0 0,0
29.03.2020 00:00:00 8,7 4,5 2,8 9,2 8,9 0 0 7 4 N 1016,4 10 0 0,0
28.03.2020 23:00:00 9,4 4,2 2,6 9,2 8,9 5 3 6 4 S 1016,3 11 0 0,0
28.03.2020 22:00:00 11,8 4,3 6,5 9,2 8,9 3 1 12 6 E 1016,0 10 0 0,0
28.03.2020 21:00:00 13,2 4,6 6,4 9,1 8,9 4 2 9 5 SSW 1015,4 14 0 0,0
28.03.2020 20:00:00 13,9 5,0 9,8 9,1 8,9 4 2 19 10 WNW 1014,8 17 0 0,0
28.03.2020 19:00:00 15,7 5,0 15,0 8,9 8,9 11 6 17 9 NNE 1014,2 17 32 0,0
28.03.2020 18:00:00 17,8 4,4 20,1 8,8 8,9 9 5 20 11 N 1013,8 16 56 0,0
28.03.2020 17:00:00 17,7 3,6 23,9 8,7 8,9 11 6 21 12 N 1013,9 17 60 0,0
28.03.2020 16:00:00 16,8 4,1 23,5 8,5 8,9 15 8 24 13 N 1014,5 12 60 0,0
28.03.2020 15:00:00 16,4 4,7 23,7 8,5 8,9 17 9 22 12 N 1015,2 10 60 0,0
28.03.2020 14:00:00 14,2 3,6 23,1 8,4 8,9 10 6 18 10 NNW 1016,1 11 60 0,0
28.03.2020 13:00:00 12,8 2,3 20,9 8,3 8,9 5 3 13 7 NNE 1017,0 11 60 0,0
28.03.2020 12:00:00 10,0 3,7 15,8 8,2 8,9 9 5 15 8 N 1018,0 8 52 0,0
28.03.2020 11:00:00 9,2 3,2 16,8 8,3 8,9 8 5 14 8 N 1018,5 8 58 0,0
28.03.2020 10:00:00 9,1 3,7 10,0 8,3 8,9 3 1 7 4 E 1018,5 9 55 0,0
28.03.2020 09:00:00 6,3 4,0 1,3 8,3 8,9 2 1 5 3 S 1018,8 5 27 0,0
28.03.2020 08:00:00 4,4 1,9 1,7 8,4 8,9 3 2 5 3 NNE 1018,8 7 0 0,0
28.03.2020 07:00:00 4,7 2,4 2,8 8,4 8,9 2 1 6 3 NE 1018,6 5 0 0,0
28.03.2020 06:00:00 5,0 2,5 3,0 8,5 8,9 0 0 4 2 N 1018,4 6 0 0,0
28.03.2020 05:00:00 4,6 2,0 2,1 8,5 8,9 3 2 4 2 SSW 1018,3 7 0 0,0
28.03.2020 04:00:00 4,6 1,8 1,7 8,5 8,9 0 0 3 2 N 1018,3 6 0 0,0
28.03.2020 03:00:00 4,5 1,7 0,3 8,6 8,9 0 0 4 2 N 1018,2 7 0 0,0
28.03.2020 02:00:00 4,1 1,6 -1,4 8,6 8,9 3 2 6 3 SSE 1018,1 7 0 0,0
28.03.2020 01:00:00 3,3 0,3 -1,4 8,7 8,9 5 3 8 4 SSW 1018,1 7 0 0,0
28.03.2020 00:00:00 5,1 1,4 -1,1 8,7 8,9 4 2 5 3 E 1017,6 8 0 0,0
27.03.2020 23:00:00 6,4 1,7 2,0 8,8 8,9 4 2 5 3 S 1017,0 9 0 0,0
27.03.2020 22:00:00 6,6 1,7 1,2 8,8 8,9 2 1 6 4 WSW 1016,5 9 0 0,0
27.03.2020 21:00:00 6,5 1,0 1,4 8,8 8,9 5 3 12 6 S 1016,1 10 0 0,0
27.03.2020 20:00:00 8,9 0,8 3,9 8,7 8,9 5 3 14 8 S 1015,1 12 0 0,0
27.03.2020 19:00:00 10,7 2,3 7,3 8,6 8,9 4 2 13 7 NE 1014,2 14 14 0,0
27.03.2020 18:00:00 12,8 0,8 14,7 8,6 8,9 11 6 16 9 NNE 1013,7 16 48 0,0
27.03.2020 17:00:00 12,3 1,0 14,4 8,5 8,9 5 3 11 6 NNE 1013,6 15 1 0,0
27.03.2020 16:00:00 11,9 0,6 15,5 8,4 8,9 6 4 15 8 N 1013,9 14 13 0,0
27.03.2020 15:00:00 11,1 -0,4 17,0 8,3 8,9 8 4 17 9 N 1014,2 14 38 0,0
27.03.2020 14:00:00 10,8 -0,4 17,6 8,2 8,9 9 5 17 9 NNW 1014,2 12 58 0,0
27.03.2020 13:00:00 9,4 -0,8 11,4 8,2 8,9 6 3 11 6 N 1014,9 15 13 0,0
27.03.2020 12:00:00 7,7 -2,1 9,6 8,2 8,9 5 3 14 7 N 1015,6 15 0 0,0
27.03.2020 11:00:00 7,0 -1,9 8,3 8,2 8,9 9 5 21 12 N 1015,5 17 0 0,0
27.03.2020 10:00:00 6,2 -1,9 7,4 8,2 8,9 11 6 19 10 N 1015,7 16 5 0,0
27.03.2020 09:00:00 4,8 -0,4 1,3 8,3 8,9 4 2 5 3 NNE 1015,8 15 10 0,0
27.03.2020 08:00:00 3,3 -1,8 0,8 8,3 8,9 3 1 9 5 W 1015,7 15 1 0,0
27.03.2020 07:00:00 4,2 -2,7 2,0 8,4 8,9 6 4 12 6 WNW 1015,1 17 0 0,0
27.03.2020 06:00:00 4,7 -2,6 2,0 8,4 8,9 5 3 16 9 WNW 1014,9 18 0 0,0
27.03.2020 05:00:00 4,8 -2,8 3,2 8,5 8,9 8 4 21 12 NNW 1014,6 19 0 0,0
27.03.2020 04:00:00 5,1 -3,0 3,4 8,5 8,9 14 8 26 14 NNE 1014,6 21 0 0,0
27.03.2020 03:00:00 5,6 -3,5 4,0 8,6 8,9 20 11 31 17 N 1014,2 24 0 0,0
27.03.2020 02:00:00 - - - - - - - - - - - - - -

tt = Température de l'air
td = dewpoint
tt 5cm = Température de l'air 5cm
tt -20cm = Température de l'air -20cm
tt -100cm = Température de l'air -100cm
ff = Vitesse du vent
fx = gusts
dd = Direction du vent
ppp = reduced air pressure
vv = visibility
sd = Ensoleillement
rr = Quantités de précipitations

stations d'obs. à proximité